Flag for U.S.A. Weather past 2 weeks in South Bend, Indiana, U.S.A.

Now
86 °F

Sunny.


Feels Like: 90 °F
Forecast: 69 / 89 °F
Wind: 9 mph from West

Location: Michiana Regional Airport

Current Time: Sep 3, 2015 at 7:48:17 PM

Latest Report: Sep 3, 2015 at 6:54 PM


Visibility: 10 mi

Pressure: 29.88 "Hg

Humidity: 57%

Dew point: 69 °F

Location of South BendLocation

Historic Weather in South Bend — Graph

°F

South Bend temperature yesterday

Maximum temperature yesterday: 89 °F (at 4:54 PM)
Minimum temperature yesterday: 69 °F (at 6:54 AM)
Average temperature yesterday: 78 °F

Past Weeks' High & Low Weather Summary

 TemperatureHumidityPressure
High90 °F (Sep 3, 3:54 PM)100% (Aug 27, 8:00 AM)30.25 "Hg (Aug 27, 8:00 AM)
Low48 °F (Aug 27, 5:54 AM)38% (Aug 24, 1:54 PM)29.70 "Hg (Aug 19, 6:54 PM)
Average68 °F75%30.03 "Hg
* Reported Aug 19 6:54 PM — Sep 3 6:54 PM, South Bend, Weather by CustomWeather, © 2015

Note: Actual official high and low records may vary slightly from our data, if they occured in-between our weather recording intervals... More about our weather records

Advertising

South Bend weather history for previous 24 hours

 ConditionsComfort  
Time TempWeatherWind HumidityBarometerVisibility
6:54 PM
Thu, Sep 3
86 °FSunny.9 mph57%29.88 "Hg10 mi
5:54 PM88 °FSunny.9 mph52%29.88 "Hg10 mi
4:54 PM89 °FSunny.12 mph50%29.88 "Hg10 mi
3:54 PM90 °FScattered clouds.15 mph47%29.90 "Hg10 mi
2:54 PM87 °FPassing clouds.14 mph53%29.92 "Hg10 mi
1:54 PM86 °FPassing clouds.12 mph57%29.93 "Hg10 mi
12:54 PM86 °FSunny.10 mph55%29.95 "Hg10 mi
11:54 AM83 °FPartly sunny.6 mph63%29.97 "Hg10 mi
10:54 AM80 °FSunny.13 mph69%29.96 "Hg10 mi
9:54 AM77 °FSunny.10 mph77%29.96 "Hg10 mi
8:54 AM74 °FSunny.6 mph82%29.98 "Hg8 mi
7:54 AM70 °FClear.5 mph93%29.97 "Hg8 mi
6:54 AM70 °FClear.3 mph93%29.97 "Hg7 mi
5:54 AM71 °FClear.3 mph90%29.97 "Hg7 mi
4:54 AM72 °FClear.5 mph87%29.96 "Hg9 mi
3:54 AM72 °FClear.8 mph87%29.96 "Hg10 mi
2:54 AM73 °FClear.6 mph84%29.96 "Hg10 mi
1:54 AM74 °FPassing clouds.6 mph82%29.98 "Hg10 mi
12:54 AM73 °FClear.3 mph84%29.98 "Hg10 mi
11:54 PM
Wed, Sep 2
74 °FClear.No wind82%29.98 "Hg10 mi
10:54 PM76 °FClear.3 mph80%29.99 "Hg10 mi
9:54 PM78 °FClear.6 mph76%29.99 "Hg10 mi
8:54 PM78 °FSunny.No wind76%29.97 "Hg9 mi
7:54 PM82 °FSunny.No wind67%29.97 "Hg10 mi
Weather by CustomWeather, © 2015

See weather overviewHow to use our weather pages